Baton Rouge, LA

1:37 PM CDT on October 22, 2017 (GMT -0500)
Baton Rouge Metro-Ryan

Weather History for KBTR - April, 2013

Change the Weather History Date:

Monday, April 1, 2013

  Actual Average Record
Temperature  
Mean Temperature 65 °F 65 °F  
Max Temperature 77 °F 76 °F 86 °F (2006)
Min Temperature 52 °F 53 °F 35 °F (1937)
Degree Days  
Heating Degree Days 0 3  
Month to date heating degree days 0 3  
Since 1 July heating degree days 1448 1505  
Cooling Degree Days 0 3  
Month to date cooling degree days 0 3  
Year to date cooling degree days 44 92  
Growing Degree Days 14 (Base 50)    
Moisture  
Dew Point 55 °F    
Average Humidity 70    
Maximum Humidity 100    
Minimum Humidity 39    
Precipitation  
Precipitation 0.00 in 0.15 in 2.46 in (1897)
Month to date precipitation 0.00 0.15  
Year to date precipitation 24.95 15.32  
Snow  
Snow 0.00 in - - ()
Month to date snowfall 0.0  
Since 1 July snowfall 0.0  
Snow Depth 0.00 in    
Sea Level Pressure  
Sea Level Pressure 30.03 in    
Wind  
Wind Speed 2 mph (WNW)    
Max Wind Speed 12 mph    
Max Gust Speed 15 mph    
Visibility 5 miles    
Events Fog    
T = Trace of Precipitation, MM = Missing Value Source: NWS Daily Summary

Daily Weather History Graph

Daily Weather History Graph

Search for Another Location

Airport or City:

Trip Planner

Search our weather history database for the weather conditions in past years. The results will help you decide how hot, cold, wet, or windy it might be!

Date:

Astronomy

Apr. 01, 2013 Rise Set
Actual Time 6:53 AM CDT 7:23 PM CDT
Civil Twilight 6:29 AM CDT 7:47 PM CDT
Nautical Twilight 6:00 AM CDT 8:16 PM CDT
Astronomical Twilight 5:32 AM CDT 8:45 PM CDT
Moon 12:14 AM CDT (4/1) 10:58 AM CDT (4/1)
Length of Visible Light 13h 18m
Length of Day
12h 30m
Waning Gibbous, 67% of the Moon is Illuminated
Apr 1
Waning Gibbous
Apr 2
Last Quarter
Apr 10
New
Apr 18
First Quarter
Apr 25
Full

Hourly Weather History & Observations

Time (CDT) Temp. Dew Point Humidity Pressure Visibility Wind Dir Wind Speed Gust Speed Precip Events Conditions
12:18 AM 55.4 °F 55.4 °F 100% 29.96 in 1.8 mi Calm Calm - N/A   Clear
12:31 AM 55.4 °F 55.4 °F 100% 29.96 in 0.8 mi Calm Calm - N/A   Mist
12:41 AM 55.4 °F 55.4 °F 100% 29.96 in 1.2 mi Calm Calm - N/A   Partly Cloudy
12:53 AM 55.0 °F 55.0 °F 100% 29.96 in 0.8 mi Calm Calm - N/A   Mist
1:13 AM 55.4 °F 55.4 °F 100% 29.97 in 0.2 mi Calm Calm - N/A Fog Fog
1:53 AM 54.0 °F 54.0 °F 100% 29.97 in 0.2 mi Calm Calm - N/A Fog Fog
2:17 AM 53.6 °F 53.6 °F 100% 29.96 in 0.5 mi Calm Calm - N/A Fog Fog
2:53 AM 53.1 °F 53.1 °F 100% 29.96 in 0.5 mi Calm Calm - N/A Fog Fog
3:53 AM 52.0 °F 52.0 °F 100% 29.96 in 0.8 mi South 4.6 mph - N/A   Mist
4:00 AM 51.8 °F 51.8 °F 100% 29.97 in 2.0 mi Calm Calm - N/A   Overcast
4:10 AM 53.6 °F 53.6 °F 100% 29.97 in 1.0 mi Calm Calm - N/A   Mist
4:14 AM 53.6 °F 53.6 °F 100% 29.97 in 0.8 mi Calm Calm - N/A   Mist
4:38 AM 53.6 °F 53.6 °F 100% 29.98 in 0.5 mi Calm Calm - N/A Fog Fog
4:53 AM 52.0 °F 52.0 °F 100% 29.99 in 0.5 mi Calm Calm - N/A Fog Fog
5:53 AM 55.0 °F 55.0 °F 100% 30.02 in 0.5 mi Calm Calm - N/A Fog Fog
6:36 AM 53.6 °F 53.6 °F 100% 30.04 in 0.5 mi West 4.6 mph - N/A Fog Fog
6:53 AM 54.0 °F 54.0 °F 100% 30.05 in 0.5 mi West 3.5 mph - N/A Fog Fog
7:07 AM 53.6 °F 53.6 °F 100% 30.05 in 0.2 mi Calm Calm - N/A Fog Fog
7:34 AM 55.4 °F 55.4 °F 100% 30.06 in 1.0 mi SSW 4.6 mph - N/A   Mist
7:37 AM 55.4 °F 55.4 °F 100% 30.06 in 2.5 mi SSW 3.5 mph - N/A   Scattered Clouds
7:53 AM 55.9 °F 55.0 °F 97% 30.07 in 2.5 mi Calm Calm - N/A   Clear
8:13 AM 57.2 °F 57.2 °F 100% 30.08 in 2.5 mi Calm Calm - N/A   Partly Cloudy
8:53 AM 57.9 °F 57.0 °F 97% 30.09 in 2.5 mi West 4.6 mph - N/A   Clear
9:00 AM 57.2 °F 57.2 °F 100% 30.10 in 2.5 mi West 4.6 mph - N/A   Scattered Clouds
9:45 AM 62.6 °F 57.2 °F 82% 30.10 in 5.0 mi Calm Calm - N/A   Mostly Cloudy
9:53 AM 62.1 °F 57.9 °F 86% 30.10 in 5.0 mi Calm Calm - N/A   Mostly Cloudy
10:20 AM 64.4 °F 57.2 °F 77% 30.10 in 10.0 mi North 3.5 mph - N/A   Mostly Cloudy
10:53 AM 66.0 °F 57.9 °F 75% 30.10 in 10.0 mi Variable 3.5 mph - N/A   Mostly Cloudy
11:53 AM 66.9 °F 57.9 °F 73% 30.10 in 10.0 mi NNE 8.1 mph - N/A   Mostly Cloudy
12:53 PM 69.1 °F 57.0 °F 65% 30.09 in 10.0 mi Variable 4.6 mph - N/A   Clear
1:53 PM 72.0 °F 55.9 °F 57% 30.06 in 10.0 mi ENE 5.8 mph - N/A   Partly Cloudy
2:53 PM 73.9 °F 55.0 °F 52% 30.04 in 10.0 mi Variable 5.8 mph - N/A   Clear
3:53 PM 75.9 °F 52.0 °F 43% 30.02 in 10.0 mi Variable 3.5 mph - N/A   Clear
4:53 PM 77.0 °F 51.1 °F 40% 30.01 in 10.0 mi ENE 4.6 mph - N/A   Clear
5:53 PM 77.0 °F 50.0 °F 39% 30.00 in 10.0 mi NNE 5.8 mph - N/A   Clear
6:53 PM 73.9 °F 52.0 °F 46% 30.00 in 10.0 mi Calm Calm - N/A   Clear
7:53 PM 66.0 °F 55.9 °F 70% 30.00 in 10.0 mi Calm Calm - N/A   Clear
8:53 PM 63.0 °F 55.9 °F 78% 30.01 in 10.0 mi Calm Calm - N/A   Clear
9:53 PM 60.1 °F 55.9 °F 86% 30.04 in 10.0 mi Calm Calm - N/A   Clear
10:53 PM 57.0 °F 55.0 °F 93% 30.05 in 10.0 mi Calm Calm - N/A   Clear
11:53 PM 57.0 °F 54.0 °F 89% 30.06 in 10.0 mi Calm Calm - N/A   Clear